Time,TemperatureF,DewpointF,PressureIn,WindDirection,WindDirectionDegrees,WindSpeedMPH,WindSpeedGustMPH,Humidity,HourlyPrecipIn,Conditions,Clouds,dailyrainin,SoftwareType,DateUTC
2013-05-22 00:04:00,67.6,61.0,29.88,NW,309,0.0,1.0,80,0.00,,,0.00,weatherlink.com 1.10,2013-05-21 21:04:00,
2013-05-22 00:19:00,67.5,61.0,29.88,NW,309,0.0,1.0,80,0.00,,,0.00,weatherlink.com 1.10,2013-05-21 21:19:00,
2013-05-22 00:34:00,67.4,61.0,29.88,NW,309,0.0,1.0,80,0.00,,,0.00,weatherlink.com 1.10,2013-05-21 21:34:00,
2013-05-22 00:49:00,67.1,61.0,29.88,NW,309,0.0,1.0,81,0.00,,,0.00,weatherlink.com 1.10,2013-05-21 21:49:00,
2013-05-22 01:04:00,67.2,62.0,29.88,NW,309,0.0,0.0,82,0.00,,,0.00,weatherlink.com 1.10,2013-05-21 22:04:00,
2013-05-22 01:19:00,66.9,61.0,29.88,NW,310,1.0,1.0,82,0.00,,,0.00,weatherlink.com 1.10,2013-05-21 22:19:00,
2013-05-22 01:34:00,66.5,61.0,29.88,NW,310,0.0,1.0,83,0.00,,,0.00,weatherlink.com 1.10,2013-05-21 22:34:00,
2013-05-22 01:49:00,66.3,61.0,29.87,NW,310,0.0,0.0,83,0.00,,,0.00,weatherlink.com 1.10,2013-05-21 22:49:00,
2013-05-22 02:04:00,66.2,61.0,29.88,NW,311,0.0,0.0,83,0.00,,,0.00,weatherlink.com 1.10,2013-05-21 23:04:00,
2013-05-22 02:20:00,66.0,61.0,29.87,NW,311,0.0,0.0,84,0.00,,,0.00,weatherlink.com 1.10,2013-05-21 23:20:00,
2013-05-22 02:35:00,65.7,61.0,29.88,NW,311,0.0,1.0,84,0.00,,,0.00,weatherlink.com 1.10,2013-05-21 23:35:00,
2013-05-22 02:50:00,66.0,61.0,29.88,NW,311,0.0,1.0,84,0.00,,,0.00,weatherlink.com 1.10,2013-05-21 23:50:00,
2013-05-22 03:05:00,65.8,61.0,29.88,NW,311,0.0,0.0,84,0.00,,,0.00,weatherlink.com 1.10,2013-05-22 00:05:00,
2013-05-22 03:20:00,65.6,61.0,29.88,NW,310,0.0,0.0,84,0.00,,,0.00,weatherlink.com 1.10,2013-05-22 00:20:00,
2013-05-22 03:35:00,66.0,61.0,29.88,ESE,123,1.0,2.0,83,0.00,,,0.00,weatherlink.com 1.10,2013-05-22 00:35:00,
2013-05-22 03:50:00,66.7,60.0,29.88,ESE,117,0.0,1.0,80,0.00,,,0.00,weatherlink.com 1.10,2013-05-22 00:50:00,
2013-05-22 04:05:00,66.6,61.0,29.89,SW,229,0.0,1.0,81,0.00,,,0.00,weatherlink.com 1.10,2013-05-22 01:05:00,
2013-05-22 04:20:00,66.4,60.0,29.89,ESE,114,1.0,2.0,80,0.00,,,0.00,weatherlink.com 1.10,2013-05-22 01:20:00,
2013-05-22 04:35:00,66.3,60.0,29.89,SE,129,0.0,2.0,80,0.00,,,0.00,weatherlink.com 1.10,2013-05-22 01:35:00,
2013-05-22 04:50:00,66.1,59.0,29.89,SSE,153,0.0,1.0,79,0.00,,,0.00,weatherlink.com 1.10,2013-05-22 01:50:00,
2013-05-22 05:05:00,66.1,59.0,29.89,SE,131,0.0,1.0,78,0.00,,,0.00,weatherlink.com 1.10,2013-05-22 02:05:00,
2013-05-22 05:20:00,66.0,59.0,29.89,SSE,150,0.0,1.0,77,0.00,,,0.00,weatherlink.com 1.10,2013-05-22 02:20:00,
2013-05-22 05:36:00,65.5,59.0,29.90,SSE,150,0.0,0.0,79,0.00,,,0.00,weatherlink.com 1.10,2013-05-22 02:36:00,
2013-05-22 05:51:00,64.8,59.0,29.90,SSE,150,0.0,0.0,80,0.00,,,0.00,weatherlink.com 1.10,2013-05-22 02:51:00,
2013-05-22 06:05:00,65.0,58.0,29.90,SSE,149,0.0,0.0,79,0.00,,,0.00,weatherlink.com 1.10,2013-05-22 03:05:00,
2013-05-22 06:20:00,65.7,58.0,29.90,SE,131,0.0,1.0,77,0.00,,,0.00,weatherlink.com 1.10,2013-05-22 03:20:00,
2013-05-22 06:35:00,67.6,60.0,29.91,SE,131,0.0,1.0,76,0.00,,,0.00,weatherlink.com 1.10,2013-05-22 03:35:00,
2013-05-22 06:50:00,69.7,60.0,29.91,ESE,115,0.0,1.0,70,0.00,,,0.00,weatherlink.com 1.10,2013-05-22 03:50:00,
2013-05-22 07:05:00,70.1,59.0,29.91,SE,140,0.0,2.0,69,0.00,,,0.00,weatherlink.com 1.10,2013-05-22 04:05:00,
2013-05-22 07:22:00,70.4,58.0,29.91,SE,127,0.0,3.0,66,0.00,,,0.00,weatherlink.com 1.10,2013-05-22 04:22:00,
2013-05-22 07:36:00,71.9,58.0,29.91,SSE,148,2.0,4.0,62,0.00,,,0.00,weatherlink.com 1.10,2013-05-22 04:36:00,
2013-05-22 07:50:00,72.6,59.0,29.92,SE,146,0.0,5.0,63,0.00,,,0.00,weatherlink.com 1.10,2013-05-22 04:50:00,
2013-05-22 08:05:00,73.3,61.0,29.92,SE,143,2.0,2.0,65,0.00,,,0.00,weatherlink.com 1.10,2013-05-22 05:05:00,
2013-05-22 08:21:00,75.2,63.0,29.92,SW,226,1.0,2.0,65,0.00,,,0.00,weatherlink.com 1.10,2013-05-22 05:21:00,
2013-05-22 08:36:00,75.6,63.0,29.93,West,259,1.0,3.0,65,0.00,,,0.00,weatherlink.com 1.10,2013-05-22 05:36:00,
2013-05-22 08:51:00,75.9,63.0,29.93,South,183,3.0,6.0,65,0.00,,,0.00,weatherlink.com 1.10,2013-05-22 05:51:00,
2013-05-22 09:06:00,77.8,64.0,29.93,SSW,206,0.0,4.0,62,0.00,,,0.00,weatherlink.com 1.10,2013-05-22 06:06:00,
2013-05-22 09:20:00,79.6,63.0,29.93,SE,133,1.0,4.0,57,0.00,,,0.00,weatherlink.com 1.10,2013-05-22 06:20:00,
2013-05-22 09:36:00,79.9,63.0,29.93,SW,236,1.0,4.0,56,0.00,,,0.00,weatherlink.com 1.10,2013-05-22 06:36:00,
2013-05-22 09:50:00,82.1,63.0,29.93,WNW,284,3.0,6.0,52,0.00,,,0.00,weatherlink.com 1.10,2013-05-22 06:50:00,
2013-05-22 10:07:00,82.6,63.0,29.93,NE,39,0.0,5.0,52,0.00,,,0.00,weatherlink.com 1.10,2013-05-22 07:07:00,
2013-05-22 10:21:00,83.5,63.0,29.92,SW,229,2.0,5.0,51,0.00,,,0.00,weatherlink.com 1.10,2013-05-22 07:21:00,
2013-05-22 10:36:00,85.0,59.0,29.92,SE,128,2.0,4.0,41,0.00,,,0.00,weatherlink.com 1.10,2013-05-22 07:36:00,
2013-05-22 10:52:00,85.6,58.0,29.92,WNW,298,0.0,3.0,39,0.00,,,0.00,weatherlink.com 1.10,2013-05-22 07:52:00,
2013-05-22 11:06:00,88.1,59.0,29.91,West,276,0.0,3.0,38,0.00,,,0.00,weatherlink.com 1.10,2013-05-22 08:06:00,
2013-05-22 11:21:00,86.7,64.0,29.91,West,260,5.0,7.0,47,0.00,,,0.00,weatherlink.com 1.10,2013-05-22 08:21:00,
2013-05-22 11:36:00,84.3,65.0,29.91,WNW,299,5.0,9.0,52,0.00,,,0.00,weatherlink.com 1.10,2013-05-22 08:36:00,
2013-05-22 11:52:00,84.1,65.0,29.91,WNW,301,4.0,10.0,53,0.00,,,0.00,weatherlink.com 1.10,2013-05-22 08:52:00,
2013-05-22 12:06:00,83.8,65.0,29.91,WNW,285,8.0,9.0,54,0.00,,,0.00,weatherlink.com 1.10,2013-05-22 09:06:00,
2013-05-22 12:23:00,83.3,65.0,29.91,WSW,256,7.0,10.0,55,0.00,,,0.00,weatherlink.com 1.10,2013-05-22 09:23:00,
2013-05-22 12:36:00,83.1,66.0,29.91,WNW,294,7.0,12.0,56,0.00,,,0.00,weatherlink.com 1.10,2013-05-22 09:36:00,
2013-05-22 12:51:00,83.1,65.0,29.91,WNW,283,3.0,11.0,55,0.00,,,0.00,weatherlink.com 1.10,2013-05-22 09:51:00,
2013-05-22 13:06:00,83.2,63.0,29.91,WNW,301,7.0,10.0,51,0.00,,,0.00,weatherlink.com 1.10,2013-05-22 10:06:00,
2013-05-22 13:22:00,83.5,65.0,29.90,NW,304,9.0,13.0,53,0.00,,,0.00,weatherlink.com 1.10,2013-05-22 10:22:00,
2013-05-22 13:37:00,83.1,63.0,29.90,WNW,302,8.0,13.0,50,0.00,,,0.00,weatherlink.com 1.10,2013-05-22 10:37:00,
2013-05-22 13:53:00,83.5,64.0,29.90,WSW,246,7.0,13.0,52,0.00,,,0.00,weatherlink.com 1.10,2013-05-22 10:53:00,
2013-05-22 14:07:00,83.9,63.0,29.89,West,280,1.0,16.0,50,0.00,,,0.00,weatherlink.com 1.10,2013-05-22 11:07:00,
2013-05-22 14:24:00,83.8,63.0,29.89,WNW,283,7.0,11.0,49,0.00,,,0.00,weatherlink.com 1.10,2013-05-22 11:24:00,
2013-05-22 14:37:00,83.9,62.0,29.89,West,276,4.0,13.0,48,0.00,,,0.00,weatherlink.com 1.10,2013-05-22 11:37:00,
2013-05-22 14:51:00,83.8,62.0,29.88,WNW,301,2.0,12.0,48,0.00,,,0.00,weatherlink.com 1.10,2013-05-22 11:51:00,
2013-05-22 15:06:00,84.6,63.0,29.89,NNW,348,9.0,11.0,49,0.00,,,0.00,weatherlink.com 1.10,2013-05-22 12:06:00,
2013-05-22 15:21:00,84.9,62.0,29.88,WNW,288,4.0,10.0,47,0.00,,,0.00,weatherlink.com 1.10,2013-05-22 12:21:00,
2013-05-22 15:38:00,83.8,62.0,29.89,West,274,7.0,14.0,48,0.00,,,0.00,weatherlink.com 1.10,2013-05-22 12:38:00,
2013-05-22 15:54:00,82.8,63.0,29.89,NW,307,6.0,13.0,52,0.00,,,0.00,weatherlink.com 1.10,2013-05-22 12:54:00,
2013-05-22 16:07:00,82.6,62.0,29.88,WNW,288,8.0,12.0,50,0.00,,,0.00,weatherlink.com 1.10,2013-05-22 13:07:00,
2013-05-22 16:22:00,82.4,63.0,29.89,ENE,59,1.0,13.0,52,0.00,,,0.00,weatherlink.com 1.10,2013-05-22 13:22:00,
2013-05-22 16:37:00,82.2,62.0,29.88,West,280,6.0,11.0,51,0.00,,,0.00,weatherlink.com 1.10,2013-05-22 13:37:00,
2013-05-22 16:53:00,82.4,63.0,29.88,NNW,334,3.0,9.0,53,0.00,,,0.00,weatherlink.com 1.10,2013-05-22 13:53:00,
2013-05-22 17:08:00,82.5,64.0,29.88,West,264,1.0,10.0,53,0.00,,,0.00,weatherlink.com 1.10,2013-05-22 14:08:00,
2013-05-22 17:22:00,82.8,61.0,29.88,NNW,332,2.0,8.0,48,0.00,,,0.00,weatherlink.com 1.10,2013-05-22 14:22:00,
2013-05-22 17:37:00,82.9,62.0,29.88,North,360,2.0,10.0,50,0.00,,,0.00,weatherlink.com 1.10,2013-05-22 14:37:00,
2013-05-22 17:52:00,82.8,61.0,29.88,NNE,25,2.0,8.0,47,0.00,,,0.00,weatherlink.com 1.10,2013-05-22 14:52:00,
2013-05-22 18:09:00,81.7,62.0,29.88,NNE,18,1.0,9.0,52,0.00,,,0.00,weatherlink.com 1.10,2013-05-22 15:09:00,
2013-05-22 18:22:00,81.7,63.0,29.88,NNW,333,2.0,7.0,53,0.00,,,0.00,weatherlink.com 1.10,2013-05-22 15:22:00,
2013-05-22 18:37:00,80.6,62.0,29.89,West,266,1.0,6.0,54,0.00,,,0.00,weatherlink.com 1.10,2013-05-22 15:37:00,
2013-05-22 18:52:00,79.6,63.0,29.88,West,279,3.0,8.0,57,0.00,,,0.00,weatherlink.com 1.10,2013-05-22 15:52:00,
2013-05-22 19:07:00,78.5,63.0,29.89,NNW,340,1.0,5.0,60,0.00,,,0.00,weatherlink.com 1.10,2013-05-22 16:07:00,
2013-05-22 19:27:00,77.2,64.0,29.88,North,352,0.0,4.0,64,0.00,,,0.00,weatherlink.com 1.10,2013-05-22 16:27:00,
2013-05-22 19:37:00,76.6,64.0,29.88,WNW,300,0.0,4.0,66,0.00,,,0.00,weatherlink.com 1.10,2013-05-22 16:37:00,
2013-05-22 19:52:00,76.2,65.0,29.89,NNE,23,0.0,2.0,68,0.00,,,0.00,weatherlink.com 1.10,2013-05-22 16:52:00,
2013-05-22 20:07:00,75.2,65.0,29.89,NNW,342,0.0,2.0,71,0.00,,,0.00,weatherlink.com 1.10,2013-05-22 17:07:00,
2013-05-22 20:22:00,74.7,66.0,29.89,North,350,0.0,3.0,73,0.00,,,0.00,weatherlink.com 1.10,2013-05-22 17:22:00,
2013-05-22 20:37:00,74.2,66.0,29.89,NNW,339,2.0,3.0,75,0.00,,,0.00,weatherlink.com 1.10,2013-05-22 17:37:00,
2013-05-22 20:52:00,73.8,66.0,29.90,NNW,348,0.0,3.0,76,0.00,,,0.00,weatherlink.com 1.10,2013-05-22 17:52:00,
2013-05-22 21:09:00,73.8,66.0,29.91,North,8,0.0,1.0,77,0.00,,,0.00,weatherlink.com 1.10,2013-05-22 18:09:00,
2013-05-22 21:23:00,73.5,66.0,29.91,NNE,13,0.0,1.0,78,0.00,,,0.00,weatherlink.com 1.10,2013-05-22 18:23:00,
2013-05-22 21:38:00,73.4,67.0,29.92,NNE,13,0.0,1.0,79,0.00,,,0.00,weatherlink.com 1.10,2013-05-22 18:38:00,
2013-05-22 21:54:00,73.2,67.0,29.93,NNE,15,0.0,1.0,81,0.00,,,0.00,weatherlink.com 1.10,2013-05-22 18:54:00,
2013-05-22 22:07:00,72.9,67.0,29.93,North,359,0.0,1.0,82,0.00,,,0.00,weatherlink.com 1.10,2013-05-22 19:07:00,
2013-05-22 22:23:00,72.2,67.0,29.93,North,352,0.0,1.0,83,0.00,,,0.00,weatherlink.com 1.10,2013-05-22 19:23:00,
2013-05-22 22:37:00,72.0,67.0,29.93,North,351,0.0,1.0,85,0.00,,,0.00,weatherlink.com 1.10,2013-05-22 19:37:00,
2013-05-22 22:52:00,71.8,67.0,29.93,NNE,31,0.0,1.0,85,0.00,,,0.00,weatherlink.com 1.10,2013-05-22 19:52:00,
2013-05-22 23:08:00,71.5,67.0,29.93,NNE,21,0.0,1.0,85,0.00,,,0.00,weatherlink.com 1.10,2013-05-22 20:08:00,
2013-05-22 23:22:00,70.9,67.0,29.92,North,354,1.0,1.0,86,0.00,,,0.00,weatherlink.com 1.10,2013-05-22 20:22:00,
2013-05-22 23:38:00,70.5,66.0,29.92,North,354,0.0,1.0,86,0.00,,,0.00,weatherlink.com 1.10,2013-05-22 20:38:00,
2013-05-22 23:55:00,70.0,66.0,29.91,North,354,0.0,1.0,86,0.00,,,0.00,weatherlink.com 1.10,2013-05-22 20:55:00,